CW4518 Weather Reports


time (UTC)temp
C
wind
direction
speed
KPH
gust
KPH
rain 1hr
cm
rain 24hr
cm
rain mn
cm
humidity
%
barometer
mb
20260906203026 25 144 0.0 6.4 0.00 0.00 0.00 63 1019.3
20260906202511 25 119 1.6 6.4 0.00 0.00 0.00 64 1019.3
20260906202013 25 188 0.0 0.0 0.00 0.00 0.00 67 1019.3
20260906201520 25 188 0.0 4.8 0.00 0.00 0.00 65 1019.2
20260906201014 25 188 0.0 9.7 0.00 0.00 0.00 63 1019.2
20260906200513 26 273 0.0 9.7 0.00 0.00 0.00 61 1019.2
20260906200023 26 146 1.6 8.0 0.00 0.00 0.00 62 1019.3
20260906195513 26 141 1.6 8.0 0.00 0.00 0.00 63 1019.3
20260906195013 26 9 0.0 4.8 0.00 0.00 0.00 65 1019.2
20260906194526 26 325 0.0 4.8 0.00 0.00 0.00 66 1019.3
20260906194018 25 273 0.0 4.8 0.00 0.00 0.00 64 1019.3
20260906193510 26 328 1.6 4.8 0.00 0.00 0.00 64 1019.4
20260906193025 26 344 0.0 3.2 0.00 0.00 0.00 65 1019.5
20260906192505 25 331 0.0 3.2 0.00 0.00 0.00 65 1019.5
20260906192009 25 348 0.0 3.2 0.00 0.00 0.00 65 1019.6
20260906191519 25 340 0.0 4.8 0.00 0.00 0.00 66 1019.7
20260906191005 25 346 1.6 4.8 0.00 0.00 0.00 66 1019.8
20260906190508 25 277 1.6 4.8 0.00 0.00 0.00 67 1019.8
20260906190021 25 223 0.0 3.2 0.00 0.00 0.00 67 1019.8
20260906185505 25 227 0.0 3.2 0.00 0.00 0.00 66 1019.9
20260906185001 26 82 0.0 3.2 0.00 0.00 0.00 64 1020.0
20260906184503 26 345 0.0 3.2 0.00 0.00 0.00 64 1020.1
20260906184013 26 31 0.0 3.2 0.00 0.00 0.00 65 1020.2
20260906183505 26 39 0.0 3.2 0.00 0.00 0.00 64 1020.1
20260906183006 26 9 0.0 3.2 0.00 0.00 0.00 66 1020.1
20260906182507 25 65 0.0 3.2 0.00 0.00 0.00 63 1020.1
20260906182002 25 283 0.0 3.2 0.00 0.00 0.00 64 1020.1
20260906181506 25 221 0.0 3.2 0.00 0.00 0.00 65 1020.2
20260906181009 25 188 0.0 9.7 0.00 0.00 0.00 65 1020.2
20260906180510 25 84 3.2 9.7 0.00 0.00 0.00 63 1020.2
20260906180002 25 124 3.2 9.7 0.00 0.00 0.00 63 1020.3
20260906175506 25 98 0.0 4.8 0.00 0.00 0.00 65 1020.3
20260906175013 26 191 0.0 4.8 0.00 0.00 0.00 64 1020.3
20260906174505 25 152 0.0 4.8 0.00 0.00 0.00 66 1020.3
20260906174002 25 72 0.0 8.0 0.00 0.00 0.00 68 1020.4
20260906173506 25 155 3.2 8.0 0.00 0.00 0.00 64 1020.4
20260906173006 25 343 0.0 3.2 0.00 0.00 0.00 64 1020.4
20260906172502 25 105 0.0 8.0 0.00 0.00 0.00 65 1020.5
20260906172005 25 142 1.6 8.0 0.00 0.00 0.00 63 1020.5
20260906171510 25 298 0.0 4.8 0.00 0.00 0.00 66 1020.5
20260906171002 24 30 0.0 6.4 0.00 0.00 0.00 68 1020.5
20260906170509 23 119 0.0 11.3 0.00 0.00 0.00 67 1020.6
20260906170016 23 28 1.6 11.3 0.00 0.00 0.00 67 1020.6
20260906165512 23 140 1.6 8.0 0.00 0.00 0.00 69 1020.6
20260906165007 23 333 0.0 6.4 0.00 0.00 0.00 71 1020.6
20260906164511 23 121 1.6 6.4 0.00 0.00 0.00 72 1020.6
20260906164010 23 126 1.6 6.4 0.00 0.00 0.00 70 1020.6
20260906163502 23 100 3.2 8.0 0.00 0.00 0.00 69 1020.7
20260906163003 23 126 1.6 8.0 0.00 0.00 0.00 69 1020.6
20260906162503 23 129 0.0 6.4 0.00 0.00 0.00 71 1020.7
20260906162006 23 165 1.6 9.7 0.00 0.00 0.00 71 1020.6
20260906161504 23 149 4.8 9.7 0.00 0.00 0.00 70 1020.7
20260906161007 23 117 3.2 9.7 0.00 0.00 0.00 70 1020.7
20260906160507 23 5 1.6 6.4 0.00 0.00 0.00 71 1020.7
20260906160013 23 96 3.2 9.7 0.00 0.00 0.00 70 1020.6
20260906155508 22 130 0.0 9.7 0.00 0.00 0.00 72 1020.6
20260906155013 22 147 0.0 8.0 0.00 0.00 0.00 70 1020.6
20260906154516 22 64 3.2 8.0 0.00 0.00 0.00 71 1020.6
20260906154002 22 125 0.0 9.7 0.00 0.00 0.00 73 1020.7
20260906153506 22 169 1.6 8.0 0.00 0.00 0.00 73 1020.7
20260906153019 22 156 3.2 6.4 0.00 0.00 0.00 72 1020.6
20260906152518 22 123 0.0 6.4 0.00 0.00 0.00 73 1020.7
20260906152006 22 153 1.6 11.3 0.00 0.00 0.00 74 1020.7
20260906151516 22 150 3.2 11.3 0.00 0.00 0.00 73 1020.6
20260906151005 21 136 0.0 6.4 0.00 0.00 0.00 74 1020.7
20260906150508 21 78 0.0 6.4 0.00 0.00 0.00 76 1020.7
20260906150008 21 30 0.0 11.3 0.00 0.00 0.00 77 1020.7
20260906145506 20 97 0.0 11.3 0.00 0.00 0.00 76 1020.7
20260906145010 20 138 3.2 6.4 0.00 0.00 0.00 76 1020.7
20260906144514 20 116 1.6 9.7 0.00 0.00 0.00 77 1020.7
20260906144009 20 120 3.2 8.0 0.00 0.00 0.00 78 1020.7
20260906143511 20 137 1.6 8.0 0.00 0.00 0.00 79 1020.7
20260906143009 19 123 0.0 6.4 0.00 0.00 0.00 80 1020.6
20260906142507 19 117 3.2 9.7 0.00 0.00 0.00 82 1020.7
20260906142012 18 71 3.2 9.7 0.00 0.00 0.00 81 1020.8
20260906141526 19 123 3.2 8.0 0.00 0.00 0.00 81 1020.7
20260906141007 18 134 3.2 6.4 0.00 0.00 0.00 82 1020.8
20260906140511 18 130 1.6 6.4 0.00 0.00 0.00 82 1020.9
20260906140012 18 109 0.0 3.2 0.00 0.00 0.00 83 1020.9
20260906135506 18 78 0.0 6.4 0.00 0.00 0.00 84 1020.8
20260906135006 18 77 0.0 6.4 0.00 0.00 0.00 86 1020.8
20260906134514 17 153 3.2 6.4 0.00 0.00 0.00 84 1020.8
20260906134016 17 120 1.6 3.2 0.00 0.00 0.00 85 1020.9
20260906133507 17 161 0.0 3.2 0.00 0.00 0.00 86 1020.9
20260906133017 17 94 0.0 3.2 0.00 0.00 0.00 87 1020.9
20260906132512 17 142 0.0 3.2 0.00 0.00 0.00 87 1020.9
20260906132003 17 85 0.0 3.2 0.00 0.00 0.00 89 1020.9
20260906131521 16 31 0.0 3.2 0.00 0.00 0.00 89 1021.0
20260906131011 16 31 0.0 3.2 0.00 0.00 0.00 89 1021.0
20260906130704 16 31 0.0 1.6 0.00 0.00 0.00 90 1020.9
20260906130657 16 140 0.0 0.0 0.00 0.00 0.00 91 1020.8
20260906125015 15 140 0.0 3.2 0.00 0.00 0.00 94 1020.8
20260906124511 15 121 0.0 1.6 0.00 0.00 0.00 94 1020.7
20260906124006 15 121 0.0 1.6 0.00 0.00 0.00 94 1020.7
20260906123507 14 133 0.0 3.2 0.00 0.00 0.00 94 1020.7
20260906123016 14 133 0.0 3.2 0.00 0.00 0.00 94 1020.7
20260906122507 14 134 0.0 3.2 0.00 0.00 0.00 94 1020.7
20260906122013 14 131 0.0 3.2 0.00 0.00 0.00 94 1020.7
20260906121522 14 122 0.0 3.2 0.00 0.00 0.00 94 1020.7
20260906121016 14 141 0.0 3.2 0.00 0.00 0.00 94 1020.6
20260906120510 14 83 0.0 0.0 0.00 0.00 0.00 94 1020.6
20260906120023 14 108 0.0 0.0 0.00 0.00 0.00 94 1020.5
20260906115514 14 116 0.0 3.2 0.00 0.00 0.00 94 1020.4
20260906115007 14 116 0.0 3.2 0.00 0.00 0.00 94 1020.3
20260906114519 14 116 0.0 3.2 0.00 0.00 0.00 94 1020.3
20260906114017 14 123 0.0 1.6 0.00 0.00 0.00 94 1020.2
20260906113517 14 126 0.0 3.2 0.00 0.00 0.00 94 1020.2
20260906113012 14 87 0.0 3.2 0.00 0.00 0.00 94 1020.3
20260906112507 14 107 0.0 3.2 0.00 0.00 0.00 94 1020.4
20260906112011 14 103 0.0 3.2 0.00 0.00 0.00 94 1020.3
20260906111513 14 153 0.0 3.2 0.00 0.00 0.00 94 1020.3
20260906111012 14 100 0.0 3.2 0.00 0.00 0.00 94 1020.4
20260906110515 14 104 0.0 3.2 0.00 0.00 0.00 94 1020.3
20260906110219 14 101 0.0 0.0 0.00 0.00 0.00 94 1020.2
20260906110209 14 82 0.0 3.2 0.00 0.00 0.00 94 1020.2
20260906110202 14 113 0.0 3.2 0.00 0.00 0.00 94 1020.1
20260906110158 14 66 0.0 3.2 0.00 0.00 0.00 94 1020.1
20260906110152 14 136 0.0 3.2 0.00 0.00 0.00 94 1020.0
20260906103008 14 127 0.0 3.2 0.00 0.00 0.00 94 1020.1
20260906102503 14 112 0.0 3.2 0.00 0.00 0.00 94 1020.1
20260906102006 14 153 0.0 1.6 0.00 0.00 0.00 94 1020.1
20260906101514 14 155 0.0 3.2 0.00 0.00 0.00 94 1020.0
20260906101006 14 53 0.0 3.2 0.00 0.00 0.00 94 1020.0
20260906100508 14 140 0.0 3.2 0.00 0.00 0.00 94 1020.0
20260906100019 14 125 0.0 3.2 0.00 0.00 0.00 94 1020.1
20260906095513 14 132 0.0 3.2 0.00 0.00 0.00 94 1020.1
20260906095006 14 48 0.0 1.6 0.00 0.00 0.00 94 1020.1
20260906094518 13 123 0.0 0.0 0.00 0.00 0.00 94 1020.1
20260906094012 13 123 0.0 0.0 0.00 0.00 0.00 94 1020.1
20260906093502 13 141 0.0 0.0 0.00 0.00 0.00 94 1020.1
20260906093009 13 144 0.0 0.0 0.00 0.00 0.00 94 1020.1
20260906092514 13 141 0.0 3.2 0.00 0.00 0.00 94 1020.0
20260906092011 13 138 0.0 3.2 0.00 0.00 0.00 94 1019.9
20260906091507 13 140 0.0 3.2 0.00 0.00 0.00 94 1019.9
20260906091008 13 90 0.0 0.0 0.00 0.00 0.00 94 1019.9
20260906090512 13 88 0.0 0.0 0.00 0.00 0.00 94 1019.9
20260906090009 13 78 0.0 0.0 0.00 0.00 0.00 93 1020.0
20260906085509 13 78 0.0 0.0 0.00 0.00 0.00 93 1020.0
20260906085011 13 78 0.0 0.0 0.00 0.00 0.00 93 1020.1
20260906084521 13 78 0.0 0.0 0.00 0.00 0.00 93 1020.1
20260906084008 13 78 0.0 0.0 0.00 0.00 0.00 94 1020.1
20260906083508 13 80 0.0 1.6 0.00 0.00 0.00 93 1020.0
20260906083025 13 80 0.0 1.6 0.00 0.00 0.00 93 1019.9
20260906082510 13 115 0.0 0.0 0.00 0.00 0.00 93 1020.0
20260906082008 12 119 0.0 0.0 0.00 0.00 0.00 93 1019.8
20260906081507 12 128 0.0 0.0 0.00 0.00 0.00 92 1019.8
20260906081007 12 128 0.0 0.0 0.00 0.00 0.00 92 1019.7
20260906080509 12 128 0.0 0.0 0.00 0.00 0.00 91 1019.8
20260906080014 13 128 0.0 0.0 0.00 0.00 0.00 92 1019.8
20260906075514 13 128 0.0 0.0 0.00 0.00 0.00 92 1019.8
20260906075004 13 128 0.0 0.0 0.00 0.00 0.00 92 1019.7
20260906074513 13 128 0.0 0.0 0.00 0.00 0.00 92 1019.7
20260906074012 13 132 0.0 0.0 0.00 0.00 0.00 91 1019.8
20260906073511 13 132 0.0 0.0 0.00 0.00 0.00 90 1019.9
20260906073129 13 132 0.0 0.0 0.00 0.00 0.00 91 1019.8
20260906070517 13 148 0.0 0.0 0.00 0.00 0.00 92 1019.9
20260906070007 13 161 0.0 0.0 0.00 0.00 0.00 91 1019.9
20260906065507 13 161 0.0 0.0 0.00 0.00 0.00 91 1019.9
20260906065005 14 162 0.0 0.0 0.00 0.00 0.00 91 1019.9
20260906064517 14 162 0.0 3.2 0.00 0.00 0.00 93 1020.0
20260906064011 14 162 0.0 3.2 0.00 0.00 0.00 93 1019.9
20260906063510 14 77 0.0 0.0 0.00 0.00 0.00 92 1019.8
20260906063017 14 77 0.0 0.0 0.00 0.00 0.00 92 1019.8
20260906062511 14 77 0.0 0.0 0.00 0.00 0.00 92 1019.8
20260906062006 14 77 0.0 0.0 0.00 0.00 0.00 92 1019.8
20260906061518 14 77 0.0 0.0 0.00 0.00 0.00 92 1019.7
20260906061014 14 77 0.0 0.0 0.00 0.00 0.00 92 1019.6
20260906060519 14 77 0.0 0.0 0.00 0.00 0.00 92 1019.6
20260906060021 14 77 0.0 0.0 0.00 0.00 0.00 92 1019.6
20260906055515 14 77 0.0 0.0 0.00 0.00 0.00 92 1019.5
20260906055015 14 77 0.0 0.0 0.00 0.00 0.00 92 1019.4
20260906054508 15 78 0.0 0.0 0.00 0.00 0.00 92 1019.4
20260906054008 15 78 0.0 0.0 0.00 0.00 0.00 91 1019.4
20260906053509 15 78 0.0 0.0 0.00 0.00 0.00 91 1019.3
20260906053225 15 78 0.0 4.8 0.00 0.00 0.00 91 1019.3
20260906053222 15 117 0.0 0.0 0.00 0.00 0.00 92 1019.4
20260906050028 15 118 0.0 0.0 0.00 0.00 0.00 92 1019.3
20260906045515 15 119 0.0 0.0 0.00 0.00 0.00 92 1019.3
20260906045010 15 119 0.0 0.0 0.00 0.00 0.00 92 1019.2
20260906044507 15 120 0.0 0.0 0.00 0.00 0.00 92 1019.2
20260906044004 15 118 0.0 0.0 0.00 0.00 0.00 92 1019.2
20260906043507 15 118 0.0 0.0 0.00 0.00 0.00 92 1019.2
20260906043013 15 118 0.0 0.0 0.00 0.00 0.00 92 1019.3
20260906042509 15 119 0.0 0.0 0.00 0.00 0.00 91 1019.3
20260906042003 15 119 0.0 0.0 0.00 0.00 0.00 91 1019.3
20260906041514 15 119 0.0 0.0 0.00 0.00 0.00 90 1019.4
20260906041014 15 119 0.0 0.0 0.00 0.00 0.00 91 1019.4
20260906040503 15 119 0.0 0.0 0.00 0.00 0.00 92 1019.3
20260906040012 15 119 0.0 0.0 0.00 0.00 0.00 92 1019.3
20260906035511 15 119 0.0 1.6 0.00 0.00 0.00 91 1019.3
20260906035015 15 119 0.0 1.6 0.00 0.00 0.00 92 1019.3
20260906034505 15 118 0.0 3.2 0.00 0.00 0.00 92 1019.3
20260906034004 15 118 0.0 3.2 0.00 0.00 0.00 92 1019.2
20260906033504 15 148 0.0 0.0 0.00 0.00 0.00 91 1019.2
20260906033004 15 148 0.0 0.0 0.00 0.00 0.00 92 1019.2
20260906032507 15 148 0.0 0.0 0.00 0.00 0.00 91 1019.2
20260906032009 15 148 0.0 0.0 0.00 0.00 0.00 90 1019.2
20260906031516 15 149 0.0 0.0 0.00 0.00 0.00 90 1019.2
20260906031008 15 150 0.0 0.0 0.00 0.00 0.00 89 1019.1
20260906030512 15 150 0.0 1.6 0.00 0.00 0.00 89 1019.1
20260906030018 15 144 0.0 1.6 0.00 0.00 0.00 89 1019.1
20260906025505 15 121 0.0 3.2 0.00 0.00 0.00 89 1018.9
20260906025008 15 121 0.0 3.2 0.00 0.00 0.00 90 1018.9
20260906024520 15 93 0.0 0.0 0.00 0.00 0.00 88 1018.9
20260906024015 15 93 0.0 0.0 0.00 0.00 0.00 88 1018.9
20260906023507 15 93 0.0 0.0 0.00 0.00 0.00 88 1018.9
20260906023007 15 93 0.0 0.0 0.00 0.00 0.00 87 1018.9
20260906022503 15 93 0.0 0.0 0.00 0.00 0.00 87 1018.9
20260906022019 15 93 0.0 0.0 0.00 0.00 0.00 86 1018.8
20260906021516 16 93 0.0 0.0 0.00 0.00 0.00 86 1018.8
20260906021011 16 93 0.0 0.0 0.00 0.00 0.00 85 1018.8
20260906020510 16 74 0.0 0.0 0.00 0.00 0.00 85 1018.8
20260906020011 16 74 0.0 0.0 0.00 0.00 0.00 85 1018.8
20260906015510 16 74 0.0 0.0 0.00 0.00 0.00 84 1018.8
20260906015012 16 75 0.0 1.6 0.00 0.00 0.00 84 1018.9
20260906014524 16 77 0.0 1.6 0.00 0.00 0.00 84 1018.8
20260906014009 16 77 0.0 0.0 0.00 0.00 0.00 84 1018.7
20260906013515 16 64 0.0 1.6 0.00 0.00 0.00 83 1018.7
20260906013024 16 61 0.0 1.6 0.00 0.00 0.00 82 1018.6
20260906012507 16 86 0.0 3.2 0.00 0.00 0.00 82 1018.6
20260906012014 17 86 0.0 3.2 0.00 0.00 0.00 82 1018.6
20260906011510 17 124 0.0 0.0 0.00 0.00 0.00 82 1018.5
20260906011006 17 124 0.0 0.0 0.00 0.00 0.00 81 1018.5
20260906010507 17 124 0.0 3.2 0.00 0.00 0.00 81 1018.4
20260906010011 17 125 0.0 3.2 0.00 0.00 0.00 81 1018.4
20260906005508 17 124 0.0 3.2 0.00 0.00 0.00 82 1018.4
20260906005010 17 136 0.0 0.0 0.00 0.00 0.00 83 1018.4
20260906004513 17 136 0.0 0.0 0.00 0.00 0.00 81 1018.5
20260906004012 17 138 0.0 0.0 0.00 0.00 0.00 83 1018.4
20260906003516 17 149 0.0 0.0 0.00 0.00 0.00 83 1018.4
20260906003013 18 142 0.0 0.0 0.00 0.00 0.00 83 1018.5
20260906002513 18 142 0.0 0.0 0.00 0.00 0.00 83 1018.5
20260906002016 18 142 0.0 0.0 0.00 0.00 0.00 82 1018.5
20260906001508 18 142 0.0 0.0 0.00 0.00 0.00 82 1018.5
20260906001011 18 142 0.0 0.0 0.00 0.00 0.00 82 1018.5
20260906000518 19 142 0.0 0.0 0.00 0.00 0.00 81 1018.5
20260906000010 19 142 0.0 0.0 0.00 0.00 0.00 81 1018.5
20260905235508 19 143 0.0 0.0 0.00 0.00 0.00 79 1018.5
20260905235010 19 143 0.0 0.0 0.00 0.00 0.00 80 1018.5
20260905234514 20 143 0.0 0.0 0.00 0.00 0.00 78 1018.5
20260905234011 20 143 0.0 0.0 0.00 0.00 0.00 78 1018.6
20260905233512 20 143 0.0 0.0 0.00 0.00 0.00 77 1018.5
20260905233023 20 143 0.0 3.2 0.00 0.00 0.00 76 1018.5
20260905232515 20 143 0.0 3.2 0.00 0.00 0.00 75 1018.6
20260905232011 20 105 0.0 0.0 0.00 0.00 0.00 76 1018.5
20260905231520 20 105 0.0 0.0 0.00 0.00 0.00 74 1018.5
20260905231015 20 105 0.0 0.0 0.00 0.00 0.00 75 1018.6
20260905230515 20 105 0.0 0.0 0.00 0.00 0.00 73 1018.6
20260905230019 20 105 0.0 0.0 0.00 0.00 0.00 74 1018.6
20260905225512 21 105 0.0 0.0 0.00 0.00 0.00 74 1018.7
20260905225014 21 136 0.0 3.2 0.00 0.00 0.00 72 1018.7
20260905224518 21 140 0.0 3.2 0.00 0.00 0.00 71 1018.6
20260905224009 21 178 0.0 3.2 0.00 0.00 0.00 70 1018.8
20260905223513 21 184 0.0 3.2 0.00 0.00 0.00 70 1018.6
20260905223018 21 256 0.0 3.2 0.00 0.00 0.00 71 1018.7
20260905222510 21 15 0.0 3.2 0.00 0.00 0.00 70 1018.7
20260905222013 21 15 0.0 3.2 0.00 0.00 0.00 70 1018.8
20260905221533 21 16 0.0 3.2 0.00 0.00 0.00 70 1018.8
20260905221009 21 350 0.0 3.2 0.00 0.00 0.00 69 1018.6
20260905220515 21 155 0.0 3.2 0.00 0.00 0.00 67 1018.5
20260905220030 22 120 0.0 3.2 0.00 0.00 0.00 68 1018.5
20260905215516 22 175 0.0 3.2 0.00 0.00 0.00 67 1018.7
20260905215009 22 345 0.0 1.6 0.00 0.00 0.00 67 1018.7
20260905214528 22 146 0.0 0.0 0.00 0.00 0.00 66 1018.8
20260905214018 22 69 0.0 3.2 0.00 0.00 0.00 65 1018.8
20260905213508 22 86 0.0 3.2 0.00 0.00 0.00 65 1018.8
20260905213015 22 57 0.0 3.2 0.00 0.00 0.00 65 1018.7
20260905212510 22 26 0.0 4.8 0.00 0.00 0.00 64 1018.5
20260905212010 22 69 0.0 6.4 0.00 0.00 0.00 63 1018.5
20260905211520 23 155 0.0 6.4 0.00 0.00 0.00 63 1018.5
20260905211014 23 267 0.0 6.4 0.00 0.00 0.00 59 1018.7
20260905210514 24 59 1.6 6.4 0.00 0.00 0.00 58 1018.6
20260905210021 25 148 0.0 3.2 0.00 0.00 0.00 57 1018.6
20260905205512 25 53 0.0 3.2 0.00 0.00 0.00 59 1018.8
20260905205016 25 333 0.0 3.2 0.00 0.00 0.00 58 1018.9
20260905204527 25 347 1.6 3.2 0.00 0.00 0.00 57 1018.9
20260905204013 25 352 0.0 3.2 0.00 0.00 0.00 56 1018.9
20260905203515 25 347 0.0 4.8 0.00 0.00 0.00 57 1018.9